Lewistown, MT

1:34 PM MDT on October 18, 2017 (GMT -0600)
Lewistown Municipal

Weather History for KLWT - October, 2013

Change the Weather History Date:

Sunday, October 27, 2013

  Actual Average Record
Temperature  
Mean Temperature 42 °F 40 °F  
Max Temperature 57 °F 52 °F 75 °F (1983)
Min Temperature 27 °F 28 °F -4 °F (1919)
Degree Days  
Heating Degree Days 23 25  
Month to date heating degree days 600 557  
Since 1 July heating degree days 863 1034  
Cooling Degree Days 0 0  
Month to date cooling degree days 0 0  
Year to date cooling degree days 277 210  
Moisture  
Dew Point 25 °F    
Average Humidity 56    
Maximum Humidity 85    
Minimum Humidity 27    
Precipitation  
Precipitation 0.00 in 0.03 in 0.99 in (1940)
Month to date precipitation 1.03 1.02  
Year to date precipitation 21.44 15.37  
Snow  
Snow 0.00 in - - ()
Snow Depth 0.00 in    
Sea Level Pressure  
Sea Level Pressure 29.99 in    
Wind  
Wind Speed 10 mph (East)    
Max Wind Speed 22 mph    
Max Gust Speed 26 mph    
Visibility 10 miles    
Events      
T = Trace of Precipitation, MM = Missing Value Source: NWS Daily Summary

Daily Weather History Graph

Daily Weather History Graph

Search for Another Location

Airport or City:

Trip Planner

Search our weather history database for the weather conditions in past years. The results will help you decide how hot, cold, wet, or windy it might be!

Date:

Astronomy

Oct. 27, 2013 Rise Set
Actual Time 7:53 AM MDT 6:08 PM MDT
Civil Twilight 7:22 AM MDT 6:40 PM MDT
Nautical Twilight 6:46 AM MDT 7:16 PM MDT
Astronomical Twilight 6:11 AM MDT 7:51 PM MDT
Moon 12:28 AM MDT (10/27) 2:43 PM MDT (10/27)
Length of Visible Light 11h 18m
Length of Day
10h 15m
Last Quarter, 43% of the Moon is Illuminated
Oct 27
Last Quarter
Nov 3
New
Nov 9
First Quarter
Nov 17
Full
Nov 25
Last Quarter

Hourly Weather History & Observations

Time (MDT) Temp. Windchill Dew Point Humidity Pressure Visibility Wind Dir Wind Speed Gust Speed Precip Events Conditions
1:54 AM 37.0 °F - 19.0 °F 48% 29.92 in 10.0 mi Calm Calm - N/A   Clear
2:54 AM 36.0 °F 30.3 °F 21.0 °F 55% 29.89 in 10.0 mi SW 6.9 mph - N/A   Clear
3:54 AM 34.0 °F - 19.9 °F 56% 29.87 in 10.0 mi Calm Calm - N/A   Clear
4:54 AM 33.1 °F 28.7 °F 19.9 °F 59% 29.86 in 10.0 mi ESE 4.6 mph - N/A   Clear
5:54 AM 32.0 °F 25.6 °F 21.0 °F 64% 29.88 in 10.0 mi SE 6.9 mph - N/A   Clear
6:54 AM 33.1 °F 28.7 °F 19.9 °F 59% 29.91 in 10.0 mi SE 4.6 mph - N/A   Clear
7:54 AM 28.9 °F 21.9 °F 21.0 °F 72% 29.91 in 10.0 mi ESE 6.9 mph - N/A   Clear
8:54 AM 35.1 °F 29.3 °F 23.0 °F 61% 29.91 in 10.0 mi SE 6.9 mph - N/A   Clear
9:54 AM 45.0 °F 42.6 °F 26.1 °F 48% 29.87 in 10.0 mi ESE 4.6 mph - N/A   Clear
10:54 AM 51.1 °F - 28.0 °F 41% 29.86 in 10.0 mi NNE 4.6 mph - N/A   Clear
11:54 AM 55.9 °F - 24.1 °F 29% 29.87 in 10.0 mi North 8.1 mph - N/A   Clear
12:54 PM 55.9 °F - 23.0 °F 28% 29.86 in 10.0 mi NE 6.9 mph - N/A   Clear
1:54 PM 57.0 °F - 26.1 °F 30% 29.87 in 10.0 mi North 9.2 mph - N/A   Clear
3:54 PM 46.9 °F - 28.0 °F 48% 29.95 in 10.0 mi East 15.0 mph 24.2 mph N/A   Clear
4:54 PM 44.1 °F 35.7 °F 30.9 °F 60% 30.01 in 10.0 mi East 20.7 mph 24.2 mph N/A   Clear
5:54 PM 41.0 °F 33.5 °F 28.9 °F 62% 30.06 in 10.0 mi East 13.8 mph 20.7 mph N/A   Clear
6:54 PM 37.9 °F 28.9 °F 28.0 °F 68% 30.11 in 10.0 mi East 16.1 mph 20.7 mph N/A   Clear
7:54 PM 35.1 °F 28.6 °F 27.0 °F 72% 30.18 in 10.0 mi ENE 8.1 mph 16.1 mph N/A   Overcast
8:54 PM 33.1 °F 24.4 °F 26.1 °F 75% 30.20 in 10.0 mi East 11.5 mph 21.9 mph N/A   Overcast
9:52 PM 32.0 °F 22.5 °F 26.6 °F 80% 30.17 in 10.0 mi East 12.7 mph - N/A   Overcast
9:54 PM 32.0 °F 22.1 °F 26.1 °F 79% 30.22 in 10.0 mi East 13.8 mph - N/A   Overcast
10:54 PM 30.0 °F 19.5 °F 25.0 °F 82% 30.23 in 10.0 mi East 13.8 mph - N/A   Overcast
11:54 PM 28.9 °F 17.7 °F 25.0 °F 85% 30.22 in 10.0 mi East 15.0 mph - N/A   Overcast